Location: Quedlinburg
(51.7921°N, 11.1414°E)
Time: 09:37:07
(UTC+02:00)

RS-44 - Pass Details

Date: 22 March 2026
Orbit: 1175 x 1510 km, 82.5° (Epoch: 17 April)

Event Time Altitude Azimuth Distance (km) Brightness Sun altitude
Rises 03:07:42 0° 346° (NNW) 4,455 ? -27.2°
Reaches altitude 10° 03:10:37 10° 340° (NNW) 3,519 ? -26.8°
Maximum altitude 03:18:24 43° 274° (W) 1,980 ? -25.9°
Enters shadow 03:19:23 41° 258° (WSW) 2,020 ? -25.8°
